Regional Weather Roundup
Issued by NWS State College, PA

Home | Current Version | Previous Version | Text Only | Print | Product List | Glossary Off
Versions: 1 2 3 4 5 6 7 8 9 10 11 12 13 14 15 16 17 18 19 20 21 22 23 24 25 26 27 28 29 30 31 32 33 34 35 36 37 38 39 40 41 42 43 44 45 46 47 48 49 50

000
ASUS41 KCTP 262210
RWRCTP

REGIONAL WEATHER ROUNDUP
NATIONAL WEATHER SERVICE STATE COLLEGE PA
500 PM EST THU FEB 26 2015

Note: "fair" indicates few or no clouds below 12,000 feet with no
significant weather and/or obstructions to visibility.

* = STATION THAT DOES NOT REPORT PRECIPITATION /E.G. RAIN...SNOW...ETC/
    THUNDER OR FOG.

PAZ002>004-007>009-013>016-020>023-029>032-262300-
WESTERN PENNSYLVANIA

CITY           SKY/WX    TMP DP  RH WIND       PRES   REMARKS
ERIE           CLOUDY    12   5  73 N7        30.12R WCI   1
MEADVILLE        N/A     11   2  67 N10       30.02R WCI  -3
FRANKLIN*      PTSUNNY   12   5  73 NW7       30.00R WCI   2
NEW CASTLE     FAIR      13   6  73 NW8       30.07R WCI   2
BEAVER COUNTY  CLOUDY    16   9  73 NW7       30.01R WCI   6
BUTLER*        PTSUNNY   18  10  73 N6        30.01R WCI   9
PITTSBURGH INT FLURRIES  19  13  77 NW13      30.00R WCI   6
PITTSBURGH     PTSUNNY   20  12  71 NW9       29.98R WCI   9
INDIANA*       CLOUDY    23  19  86 NW7G13    29.98R HAZE    WCI  15
LATROBE        LGT SNOW  25  19  80 NW10      29.98R WCI  15
WASHINGTON CO* CLOUDY    21  12  68 NW6       30.01R WCI  14
$$

PAZ004>006-010>012-017>019-024>028-033>037-041-042-045-046-049>053-262300-
CENTRAL PENNSYLVANIA

CITY           SKY/WX    TMP DP  RH WIND       PRES   REMARKS
BRADFORD       LGT SNOW  15   8  73 N7        29.91R WCI   5
DUBOIS         LGT SNOW  21  17  84 NW8       29.91R VSB 3/4 WCI  11
CLEARFIELD     LGT SNOW  25  17  72 N5        29.92R
JOHNSTOWN      CLOUDY    23  19  85 NW13      29.86R FOG     WCI  11
ALTOONA        PTSUNNY   26  14  60 CALM      29.91R
STATE COLLEGE  CLOUDY    25  12  58 CALM      29.93S
WILLIAMSPORT   CLOUDY    27  10  49 N6        29.98S
SELINSGROVE    CLOUDY    27  13  55 CALM      30.00R
FT INDIANTOWN  MOCLDY    29  15  57 NW5       29.98R
CAPITAL CITY   CLOUDY    28  17  63 NW6       29.99R
HARRISBURG     FLURRIES  28  19  69 N7        29.98S
YORK           CLOUDY    30  17  58 NW7       29.97R
$$

PAZ038>040-043-044-047-048-054-055-060>062-067>071-262300-
EASTERN PENNSYLVANIA

CITY           SKY/WX    TMP DP  RH WIND       PRES   REMARKS
SCRANTON       CLOUDY    21  11  65 N10       29.98R WCI  10
MOUNT POCONO   CLOUDY    20  11  68 NW8       29.88R WCI  10
ALLENTOWN      CLOUDY    25  15  66 CALM      29.99R
QUAKERTOWN*    MOCLDY    25  16  68 CALM      29.99R
READING        CLOUDY    28  17  63 N3        29.99R
LANCASTER      CLOUDY    29  18  63 N10       29.98R
COATESVILLE    PTCLDY    30  19  64 N6        29.97R
POTTSTOWN      CLOUDY    27  16  63 NE5       30.01R
BLUE BELL      PTCLDY    30  19  64 CALM      29.99R
DOYLESTOWN     CLOUDY    25  15  66 N7        29.99R
WILLOW GROVE   NOT AVBL
NORTH PHILA    CLOUDY    30  16  56 N10       30.02R
PHILADELPHIA   CLOUDY    31  17  56 N10       30.01R
$$



USA.gov is the U.S. government's official web portal to all federal, state and local government web resources and services.